Time,TemperatureF,DewpointF,PressureIn,WindDirection,WindDirectionDegrees,WindSpeedMPH,WindSpeedGustMPH,Humidity,HourlyPrecipIn,Conditions,Clouds,dailyrainin,SoftwareType,DateUTC
2013-07-28 00:20:00,68.0,-99.9,-100.00,West,270,12.0,24.0,-999,-99.99,,,-99.99,,2013-07-28 07:20:00,
2013-07-28 00:23:00,69.0,-99.9,-100.00,West,276,13.0,24.0,-999,-99.99,,,-99.99,,2013-07-28 07:23:00,
2013-07-28 00:43:00,69.0,-99.9,-100.00,West,268,14.0,23.0,-999,-99.99,,,-99.99,,2013-07-28 07:43:00,
2013-07-28 00:53:00,69.0,-99.9,-100.00,West,268,14.0,23.0,-999,-99.99,,,-99.99,,2013-07-28 07:53:00,
2013-07-28 01:00:00,67.0,-99.9,-100.00,West,266,11.0,17.0,-999,-99.99,,,-99.99,,2013-07-28 08:00:00,
2013-07-28 01:12:00,68.0,-99.9,-100.00,West,270,12.0,24.0,-999,-99.99,,,-99.99,,2013-07-28 08:12:00,
2013-07-28 01:43:00,68.0,-99.9,-100.00,West,279,10.0,17.0,-999,-99.99,,,-99.99,,2013-07-28 08:43:00,
2013-07-28 01:53:00,67.0,-99.9,-100.00,West,266,11.0,17.0,-999,-99.99,,,-99.99,,2013-07-28 08:53:00,
2013-07-28 02:00:00,64.0,-99.9,-100.00,NNW,330,11.0,16.0,-999,-99.99,,,-99.99,,2013-07-28 09:00:00,
2013-07-28 02:22:00,67.0,-99.9,-100.00,WNW,296,15.0,18.0,-999,-99.99,,,-99.99,,2013-07-28 09:22:00,
2013-07-28 02:32:00,67.0,-99.9,-100.00,WNW,296,15.0,18.0,-999,-99.99,,,-99.99,,2013-07-28 09:32:00,
2013-07-28 02:43:00,64.0,-99.9,-100.00,NNW,330,11.0,16.0,-999,-99.99,,,-99.99,,2013-07-28 09:43:00,
2013-07-28 02:53:00,64.0,-99.9,-100.00,NNW,330,11.0,16.0,-999,-99.99,,,-99.99,,2013-07-28 09:53:00,
2013-07-28 03:00:00,63.0,-99.9,-100.00,West,263,6.0,17.0,-999,-99.99,,,-99.99,,2013-07-28 10:00:00,
2013-07-28 03:42:00,63.0,-99.9,-100.00,West,263,6.0,17.0,-999,-99.99,,,-99.99,,2013-07-28 10:42:00,
2013-07-28 03:53:00,63.0,-99.9,-100.00,West,263,6.0,17.0,-999,-99.99,,,-99.99,,2013-07-28 10:53:00,
2013-07-28 04:00:00,63.0,-99.9,-100.00,NW,308,8.0,15.0,-999,-99.99,,,-99.99,,2013-07-28 11:00:00,
2013-07-28 04:33:00,63.0,-99.9,-100.00,NW,308,8.0,15.0,-999,-99.99,,,-99.99,,2013-07-28 11:33:00,
2013-07-28 04:43:00,63.0,-99.9,-100.00,NW,308,8.0,15.0,-999,-99.99,,,-99.99,,2013-07-28 11:43:00,
2013-07-28 04:54:00,63.0,-99.9,-100.00,NW,308,8.0,15.0,-999,-99.99,,,-99.99,,2013-07-28 11:54:00,
2013-07-28 05:00:00,60.0,-99.9,-100.00,West,277,7.0,15.0,-999,-99.99,,,-99.99,,2013-07-28 12:00:00,
2013-07-28 05:43:00,60.0,-99.9,-100.00,West,277,7.0,15.0,-999,-99.99,,,-99.99,,2013-07-28 12:43:00,
2013-07-28 05:53:00,60.0,-99.9,-100.00,West,277,7.0,15.0,-999,-99.99,,,-99.99,,2013-07-28 12:53:00,
2013-07-28 06:00:00,62.0,-99.9,-100.00,NNW,331,5.0,6.0,-999,-99.99,,,-99.99,,2013-07-28 13:00:00,
2013-07-28 06:43:00,62.0,-99.9,-100.00,NNW,331,5.0,6.0,-999,-99.99,,,-99.99,,2013-07-28 13:43:00,
2013-07-28 06:53:00,62.0,-99.9,-100.00,NNW,331,5.0,6.0,-999,-99.99,,,-99.99,,2013-07-28 13:53:00,
2013-07-28 07:00:00,61.0,-99.9,-100.00,West,276,6.0,12.0,-999,-99.99,,,-99.99,,2013-07-28 14:00:00,
2013-07-28 07:43:00,63.0,-99.9,-100.00,West,275,8.0,12.0,-999,-99.99,,,-99.99,,2013-07-28 14:43:00,
2013-07-28 07:53:00,61.0,-99.9,-100.00,West,276,6.0,12.0,-999,-99.99,,,-99.99,,2013-07-28 14:53:00,
2013-07-28 08:10:00,61.0,-99.9,-100.00,West,260,10.0,17.0,-999,-99.99,,,-99.99,,2013-07-28 15:10:00,
2013-07-28 08:43:00,63.0,-99.9,-100.00,West,266,11.0,15.0,-999,-99.99,,,-99.99,,2013-07-28 15:43:00,
2013-07-28 08:53:00,61.0,-99.9,-100.00,West,260,10.0,17.0,-999,-99.99,,,-99.99,,2013-07-28 15:53:00,
2013-07-28 09:03:00,61.0,-99.9,-100.00,West,260,10.0,17.0,-999,-99.99,,,-99.99,,2013-07-28 16:03:00,
2013-07-28 09:33:00,65.0,-99.9,-100.00,WNW,289,13.0,17.0,-999,-99.99,,,-99.99,,2013-07-28 16:33:00,
2013-07-28 09:43:00,65.0,-99.9,-100.00,WNW,289,13.0,17.0,-999,-99.99,,,-99.99,,2013-07-28 16:43:00,
2013-07-28 09:53:00,65.0,-99.9,-100.00,WNW,289,13.0,17.0,-999,-99.99,,,-99.99,,2013-07-28 16:53:00,
2013-07-28 10:00:00,65.0,-99.9,-100.00,West,271,20.0,27.0,-999,-99.99,,,-99.99,,2013-07-28 17:00:00,
2013-07-28 10:13:00,65.0,-99.9,-100.00,SW,220,18.0,23.0,-999,-99.99,,,-99.99,,2013-07-28 17:13:00,
2013-07-28 10:44:00,65.0,-99.9,-100.00,West,271,20.0,27.0,-999,-99.99,,,-99.99,,2013-07-28 17:44:00,
2013-07-28 10:53:00,65.0,-99.9,-100.00,West,271,20.0,27.0,-999,-99.99,,,-99.99,,2013-07-28 17:53:00,
2013-07-28 11:43:00,70.0,-99.9,-100.00,WNW,292,8.0,14.0,-999,-99.99,,,-99.99,,2013-07-28 18:43:00,
2013-07-28 11:53:00,70.0,-99.9,-100.00,WNW,292,8.0,14.0,-999,-99.99,,,-99.99,,2013-07-28 18:53:00,
2013-07-28 12:00:00,73.0,-99.9,-100.00,West,272,12.0,21.0,-999,-99.99,,,-99.99,,2013-07-28 19:00:00,
2013-07-28 12:13:00,70.0,-99.9,-100.00,West,260,6.0,16.0,-999,-99.99,,,-99.99,,2013-07-28 19:13:00,
2013-07-28 12:23:00,69.0,-99.9,-100.00,West,278,14.0,18.0,-999,-99.99,,,-99.99,,2013-07-28 19:23:00,
2013-07-28 12:43:00,73.0,-99.9,-100.00,West,272,12.0,21.0,-999,-99.99,,,-99.99,,2013-07-28 19:43:00,
2013-07-28 12:53:00,73.0,-99.9,-100.00,West,272,12.0,21.0,-999,-99.99,,,-99.99,,2013-07-28 19:53:00,
2013-07-28 13:33:00,73.0,-99.9,-100.00,West,278,9.0,16.0,-999,-99.99,,,-99.99,,2013-07-28 20:33:00,
2013-07-28 13:43:00,73.0,-99.9,-100.00,West,278,9.0,16.0,-999,-99.99,,,-99.99,,2013-07-28 20:43:00,
2013-07-28 13:53:00,73.0,-99.9,-100.00,West,278,9.0,16.0,-999,-99.99,,,-99.99,,2013-07-28 20:53:00,
2013-07-28 14:00:00,76.0,-99.9,-100.00,WNW,301,12.0,25.0,-999,-99.99,,,-99.99,,2013-07-28 21:00:00,
2013-07-28 14:13:00,75.0,-99.9,-100.00,WNW,289,12.0,22.0,-999,-99.99,,,-99.99,,2013-07-28 21:13:00,
2013-07-28 14:23:00,75.0,-99.9,-100.00,WNW,289,12.0,22.0,-999,-99.99,,,-99.99,,2013-07-28 21:23:00,
2013-07-28 14:33:00,76.0,-99.9,-100.00,WNW,301,12.0,25.0,-999,-99.99,,,-99.99,,2013-07-28 21:33:00,
2013-07-28 14:44:00,76.0,-99.9,-100.00,WNW,301,12.0,25.0,-999,-99.99,,,-99.99,,2013-07-28 21:44:00,
2013-07-28 14:52:00,76.0,-99.9,-100.00,WNW,301,12.0,25.0,-999,-99.99,,,-99.99,,2013-07-28 21:52:00,
2013-07-28 15:00:00,76.0,-99.9,-100.00,NNW,328,15.0,30.0,-999,-99.99,,,-99.99,,2013-07-28 22:00:00,
2013-07-28 15:43:00,76.0,-99.9,-100.00,NNW,328,15.0,30.0,-999,-99.99,,,-99.99,,2013-07-28 22:43:00,
2013-07-28 15:52:00,76.0,-99.9,-100.00,NNW,328,15.0,30.0,-999,-99.99,,,-99.99,,2013-07-28 22:52:00,
2013-07-28 16:00:00,77.0,-99.9,-100.00,WNW,283,15.0,33.0,-999,-99.99,,,-99.99,,2013-07-28 23:00:00,
2013-07-28 16:22:00,74.0,-99.9,-100.00,WNW,295,21.0,35.0,-999,-99.99,,,-99.99,,2013-07-28 23:22:00,
2013-07-28 16:33:00,74.0,-99.9,-100.00,WNW,295,21.0,35.0,-999,-99.99,,,-99.99,,2013-07-28 23:33:00,
2013-07-28 16:43:00,77.0,-99.9,-100.00,WNW,283,15.0,33.0,-999,-99.99,,,-99.99,,2013-07-28 23:43:00,
2013-07-28 16:53:00,77.0,-99.9,-100.00,WNW,283,15.0,33.0,-999,-99.99,,,-99.99,,2013-07-28 23:53:00,
2013-07-28 17:00:00,76.0,-99.9,-100.00,West,280,16.0,27.0,-999,-99.99,,,-99.99,,2013-07-29 00:00:00,
2013-07-28 17:43:00,76.0,-99.9,-100.00,West,280,16.0,27.0,-999,-99.99,,,-99.99,,2013-07-29 00:43:00,
2013-07-28 17:52:00,76.0,-99.9,-100.00,West,280,16.0,27.0,-999,-99.99,,,-99.99,,2013-07-29 00:52:00,
2013-07-28 18:00:00,76.0,-99.9,-100.00,NW,308,17.0,27.0,-999,-99.99,,,-99.99,,2013-07-29 01:00:00,
2013-07-28 18:48:00,76.0,-99.9,-100.00,NW,308,17.0,27.0,-999,-99.99,,,-99.99,,2013-07-29 01:48:00,
2013-07-28 19:00:00,74.0,-99.9,-100.00,West,275,12.0,25.0,-999,-99.99,,,-99.99,,2013-07-29 02:00:00,
2013-07-28 19:52:00,74.0,-99.9,-100.00,West,275,12.0,25.0,-999,-99.99,,,-99.99,,2013-07-29 02:52:00,
2013-07-28 20:00:00,69.0,-99.9,-100.00,WSW,251,10.0,19.0,-999,-99.99,,,-99.99,,2013-07-29 03:00:00,
2013-07-28 20:27:00,73.0,-99.9,-100.00,West,267,16.0,19.0,-999,-99.99,,,-99.99,,2013-07-29 03:27:00,
2013-07-28 20:52:00,69.0,-99.9,-100.00,WSW,251,10.0,19.0,-999,-99.99,,,-99.99,,2013-07-29 03:52:00,
2013-07-28 20:58:00,69.0,-99.9,-100.00,WSW,251,10.0,19.0,-999,-99.99,,,-99.99,,2013-07-29 03:58:00,
2013-07-28 21:00:00,69.0,-99.9,-100.00,WSW,257,11.0,13.0,-999,-99.99,,,-99.99,,2013-07-29 04:00:00,
2013-07-28 21:43:00,69.0,-99.9,-100.00,WSW,257,11.0,13.0,-999,-99.99,,,-99.99,,2013-07-29 04:43:00,
2013-07-28 21:53:00,69.0,-99.9,-100.00,WSW,257,11.0,13.0,-999,-99.99,,,-99.99,,2013-07-29 04:53:00,
2013-07-28 22:00:00,67.0,-99.9,-100.00,West,279,11.0,23.0,-999,-99.99,,,-99.99,,2013-07-29 05:00:00,
2013-07-28 22:43:00,67.0,-99.9,-100.00,West,279,11.0,23.0,-999,-99.99,,,-99.99,,2013-07-29 05:43:00,
2013-07-28 22:53:00,67.0,-99.9,-100.00,West,279,11.0,23.0,-999,-99.99,,,-99.99,,2013-07-29 05:53:00,
2013-07-28 23:00:00,65.0,-99.9,-100.00,West,269,11.0,17.0,-999,-99.99,,,-99.99,,2013-07-29 06:00:00,
2013-07-28 23:43:00,65.0,-99.9,-100.00,West,269,11.0,17.0,-999,-99.99,,,-99.99,,2013-07-29 06:43:00,
2013-07-28 23:53:00,65.0,-99.9,-100.00,West,269,11.0,17.0,-999,-99.99,,,-99.99,,2013-07-29 06:53:00,